When you browse on this site, cookies collect data to enhance your experience and personalize the content and advertising you see.
Visit our Privacy Policy to learn more. By continuing to use the site, you agree to this use of cookies and data.
  • In Hungary
  • List of Countries
  • For 7 days
  • Water Temperature
  • Weather Map
  • News
  • Weather Widgets
  • user-avatar
    Login

    Hourly Weather Piece

    Today, 15 September, Sunday

    Time Temperature Precipitation Wind Pressure Humidity
    00:00 +12°C° 0 mm 1 mps 750 mmHg 67%
    01:00 +11°C° 0 mm 1 mps 749 mmHg 69%
    02:00 +11°C° 0 mm 1 mps 749 mmHg 69%
    03:00 +11°C° 0 mm 1 mps 749 mmHg 70%
    04:00 +11°C° 0 mm 1 mps 748 mmHg 71%
    05:00 +10°C° 0 mm 2 mps 748 mmHg 69%
    06:00 +12°C° 0 mm 2 mps 748 mmHg 67%
    07:00 +12°C° 0 mm 3 mps 748 mmHg 66%
    08:00 +14°C° 0 mm 3 mps 747 mmHg 60%
    09:00 +17°C° 0 mm 4 mps 747 mmHg 54%
    10:00 +19°C° 0 mm 5 mps 746 mmHg 48%
    11:00 +20°C° 0 mm 5 mps 746 mmHg 48%
    12:00 +21°C° 0 mm 5 mps 745 mmHg 47%
    13:00 +22°C° 0 mm 5 mps 745 mmHg 47%
    14:00 +22°C° 0 mm 5 mps 744 mmHg 49%
    15:00 +22°C° 0 mm 5 mps 744 mmHg 51%
    16:00 +22°C° 0 mm 5 mps 743 mmHg 53%
    17:00 +20°C° 0 mm 5 mps 743 mmHg 58%
    18:00 +19°C° 0 mm 4 mps 743 mmHg 62%
    19:00 +18°C° 0 mm 4 mps 743 mmHg 66%
    20:00 +17°C° 0 mm 4 mps 743 mmHg 68%
    21:00 +17°C° 0 mm 4 mps 742 mmHg 70%
    22:00 +15°C° 0 mm 4 mps 742 mmHg 72%
    23:00 +16°C° 0 mm 3 mps 742 mmHg 74%

    Tomorrow, 16 September, Monday

    Time Temperature Precipitation Wind Pressure Humidity
    00:00 +16°C° 0 mm 3 mps 742 mmHg 77%
    01:00 +15°C° 0 mm 2 mps 742 mmHg 79%
    02:00 +15°C° 0 mm 2 mps 742 mmHg 81%
    03:00 +14°C° 0 mm 2 mps 742 mmHg 83%
    04:00 +14°C° 0 mm 1 mps 741 mmHg 85%
    05:00 +15°C° 0 mm 1 mps 741 mmHg 82%
    06:00 +15°C° 0 mm 1 mps 741 mmHg 80%
    07:00 +16°C° 0 mm 1 mps 741 mmHg 77%
    08:00 +17°C° 0 mm 2 mps 741 mmHg 70%
    09:00 +19°C° 0 mm 2 mps 741 mmHg 62%
    10:00 +21°C° 0 mm 3 mps 741 mmHg 55%
    11:00 +21°C° 0 mm 3 mps 741 mmHg 52%
    12:00 +22°C° 0 mm 3 mps 740 mmHg 48%
    13:00 +22°C° 0 mm 3 mps 740 mmHg 45%
    14:00 +22°C° 0 mm 3 mps 740 mmHg 49%
    15:00 +21°C° 0 mm 3 mps 739 mmHg 53%
    16:00 +20°C° 0 mm 3 mps 739 mmHg 57%
    17:00 +19°C° 0 mm 2 mps 739 mmHg 63%
    18:00 +18°C° 0 mm 2 mps 739 mmHg 68%
    19:00 +18°C° 0 mm 1 mps 738 mmHg 73%
    20:00 +16°C° 0.1 mm 1 mps 738 mmHg 77%
    21:00 +16°C° 0.1 mm 2 mps 738 mmHg 81%
    22:00 +15°C° 0.1 mm 2 mps 738 mmHg 84%
    23:00 +15°C° 0.1 mm 2 mps 738 mmHg 85%

    Day after tomorrow, 17 September, Tuesday

    Time Temperature Precipitation Wind Pressure Humidity
    00:00 +14°C° 0.1 mm 3 mps 738 mmHg 87%
    01:00 +13°C° 0.1 mm 3 mps 738 mmHg 88%
    02:00 +13°C° 0.1 mm 3 mps 738 mmHg 88%
    03:00 +12°C° 0.1 mm 4 mps 738 mmHg 87%
    04:00 +12°C° 0.1 mm 4 mps 738 mmHg 86%
    05:00 +11°C° 0 mm 4 mps 738 mmHg 83%
    06:00 +11°C° 0 mm 4 mps 739 mmHg 81%
    07:00 +11°C° 0 mm 4 mps 739 mmHg 78%
    08:00 +12°C° 0 mm 4 mps 739 mmHg 72%
    09:00 +13°C° 0 mm 4 mps 739 mmHg 66%
    10:00 +13°C° 0 mm 4 mps 739 mmHg 59%
    11:00 +14°C° 0 mm 4 mps 739 mmHg 58%
    12:00 +14°C° 0 mm 4 mps 738 mmHg 57%
    13:00 +14°C° 0 mm 4 mps 738 mmHg 56%
    14:00 +14°C° 0 mm 5 mps 738 mmHg 55%
    15:00 +14°C° 0 mm 5 mps 737 mmHg 55%
    16:00 +14°C° 0 mm 6 mps 737 mmHg 55%
    17:00 +13°C° 0 mm 5 mps 737 mmHg 57%
    18:00 +12°C° 0 mm 5 mps 738 mmHg 60%
    19:00 +12°C° 0 mm 5 mps 738 mmHg 63%
    20:00 +10°C° 0.1 mm 5 mps 738 mmHg 66%
    21:00 +9°C° 0.1 mm 5 mps 739 mmHg 69%
    22:00 +10°C° 0.1 mm 4 mps 739 mmHg 72%
    23:00 +8°C° 0 mm 4 mps 739 mmHg 73%

    18 September, Wednesday

    Time Temperature Precipitation Wind Pressure Humidity
    00:00 +7°C° 0 mm 4 mps 739 mmHg 74%
    01:00 +7°C° 0 mm 4 mps 739 mmHg 75%
    02:00 +6°C° 0 mm 4 mps 740 mmHg 76%
    03:00 +6°C° 0 mm 4 mps 740 mmHg 77%
    04:00 +6°C° 0 mm 4 mps 740 mmHg 78%
    05:00 +6°C° 0 mm 4 mps 740 mmHg 77%
    06:00 +6°C° 0 mm 5 mps 741 mmHg 76%
    07:00 +7°C° 0 mm 5 mps 741 mmHg 75%
    08:00 +8°C° 0 mm 5 mps 742 mmHg 69%
    09:00 +9°C° 0 mm 5 mps 742 mmHg 64%
    10:00 +10°C° 0 mm 5 mps 743 mmHg 58%
    11:00 +12°C° 0 mm 4 mps 742 mmHg 54%
    12:00 +13°C° 0 mm 4 mps 742 mmHg 51%
    13:00 +14°C° 0 mm 4 mps 742 mmHg 47%
    14:00 +13°C° 0 mm 4 mps 742 mmHg 47%
    15:00 +13°C° 0 mm 4 mps 742 mmHg 47%
    16:00 +13°C° 0 mm 3 mps 742 mmHg 47%
    17:00 +12°C° 0 mm 3 mps 742 mmHg 52%
    18:00 +12°C° 0 mm 2 mps 742 mmHg 58%
    19:00 +10°C° 0 mm 1 mps 742 mmHg 63%
    20:00 +9°C° 0 mm 2 mps 743 mmHg 65%
    21:00 +8°C° 0 mm 2 mps 743 mmHg 67%
    22:00 +8°C° 0 mm 2 mps 743 mmHg 68%
    23:00 +7°C° 0 mm 2 mps 743 mmHg 70%

    19 September, Thursday

    Time Temperature Precipitation Wind Pressure Humidity
    00:00 +7°C° 0 mm 2 mps 743 mmHg 72%
    01:00 +7°C° 0 mm 2 mps 743 mmHg 73%
    02:00 +6°C° 0 mm 2 mps 743 mmHg 75%
    03:00 +6°C° 0 mm 2 mps 743 mmHg 76%
    04:00 +7°C° 0 mm 1 mps 743 mmHg 78%
    05:00 +6°C° 0 mm 2 mps 743 mmHg 77%
    06:00 +7°C° 0 mm 2 mps 743 mmHg 76%
    07:00 +7°C° 0 mm 3 mps 743 mmHg 76%
    08:00 +8°C° 0.4 mm 3 mps 744 mmHg 76%
    09:00 +8°C° 0.4 mm 2 mps 744 mmHg 76%
    10:00 +9°C° 0.4 mm 2 mps 744 mmHg 77%
    11:00 +10°C° 0.3 mm 3 mps 744 mmHg 70%
    12:00 +11°C° 0.3 mm 3 mps 744 mmHg 63%
    13:00 +12°C° 0.3 mm 3 mps 744 mmHg 56%
    14:00 +12°C° 0.2 mm 3 mps 744 mmHg 58%
    15:00 +12°C° 0.2 mm 4 mps 744 mmHg 60%
    16:00 +12°C° 0.2 mm 4 mps 743 mmHg 61%
    17:00 +10°C° 0.1 mm 4 mps 744 mmHg 67%
    18:00 +9°C° 0.1 mm 3 mps 744 mmHg 73%
    19:00 +8°C° 0.1 mm 2 mps 745 mmHg 79%
    20:00 +8°C° 0.1 mm 2 mps 745 mmHg 80%
    21:00 +7°C° 0.1 mm 2 mps 746 mmHg 81%
    22:00 +7°C° 0.1 mm 2 mps 746 mmHg 82%
    23:00 +7°C° 0.1 mm 3 mps 746 mmHg 84%

    20 September, Friday

    Time Temperature Precipitation Wind Pressure Humidity
    00:00 +5°C° 0.1 mm 3 mps 747 mmHg 85%
    01:00 +5°C° 0.1 mm 3 mps 747 mmHg 87%
    02:00 +4°C° 0 mm 3 mps 747 mmHg 87%
    03:00 +4°C° 0 mm 3 mps 747 mmHg 86%
    04:00 +3°C° 0 mm 3 mps 747 mmHg 86%
    05:00 +4°C° 0 mm 3 mps 748 mmHg 84%
    06:00 +4°C° 0 mm 3 mps 748 mmHg 81%
    07:00 +4°C° 0 mm 3 mps 748 mmHg 79%
    08:00 +6°C° 0 mm 4 mps 749 mmHg 72%
    09:00 +7°C° 0 mm 4 mps 749 mmHg 65%
    10:00 +9°C° 0 mm 5 mps 750 mmHg 57%
    11:00 +10°C° 0 mm 5 mps 749 mmHg 54%
    12:00 +12°C° 0 mm 4 mps 749 mmHg 50%
    13:00 +12°C° 0 mm 4 mps 749 mmHg 46%
    14:00 +12°C° 0 mm 4 mps 749 mmHg 46%
    15:00 +12°C° 0 mm 4 mps 748 mmHg 45%
    16:00 +12°C° 0 mm 4 mps 748 mmHg 45%
    17:00 +11°C° 0 mm 3 mps 748 mmHg 49%
    18:00 +9°C° 0 mm 2 mps 749 mmHg 54%
    19:00 +9°C° 0 mm 1 mps 749 mmHg 59%
    20:00 +8°C° 0 mm 1 mps 749 mmHg 60%
    21:00 +8°C° 0 mm 1 mps 749 mmHg 62%
    22:00 +7°C° 0 mm 1 mps 749 mmHg 63%
    23:00 +6°C° 0 mm 2 mps 749 mmHg 64%
    Show more